EW8682 Weather Reports


Display with metric or nautical units.
time (UTC)temp
F
wind
direction
speed
MPH
gust
MPH
rain 1hr
in
rain 24hr
in
rain mn
in
humidity
%
barometer
mb
20260504030008 57 175 0.0 2.0 0.00 0.10 0.10 74 1005.7
20260504024509 57 175 0.0 3.0 0.00 0.10 0.10 72 1005.6
20260504023006 58 173 2.0 4.0 0.00 0.10 0.10 70 1005.4
20260504021505 59 173 0.0 3.0 0.00 0.10 0.10 69 1005.2
20260504020005 59 175 1.0 3.0 0.00 0.10 0.10 69 1005.3
20260504014504 59 175 0.0 3.0 0.00 0.10 0.10 71 1004.9
20260504013004 59 175 0.0 2.0 0.00 0.10 0.10 70 1005.0
20260504011503 59 171 1.0 6.0 0.00 0.10 0.10 70 1005.1
20260504010003 59 173 1.0 4.0 0.00 0.10 0.10 69 1004.9
20260504004502 60 173 2.0 4.0 0.00 0.10 0.10 68 1004.7
20260504003002 60 146 1.0 3.0 0.00 0.10 0.10 71 1004.8
20260504001559 60 124 0.0 2.0 0.00 0.10 0.10 72 1004.7
20260504000136 60 121 0.0 1.0 0.00 0.10 0.10 75 1004.7
20260503234555 59 116 0.0 3.0 0.00 0.10 0.10 76 1004.7
20260503233054 59 177 0.0 2.0 0.00 0.10 0.10 76 1004.8
20260503231552 59 178 0.0 1.0 0.00 0.10 0.10 74 1004.9
20260503230053 58 178 0.0 2.0 0.00 0.10 0.10 75 1004.9
20260503224547 58 178 0.0 3.0 0.00 0.10 0.10 78 1005.0
20260503223046 58 178 1.0 4.0 0.00 0.10 0.10 76 1005.3
20260503221545 57 178 1.0 4.0 0.00 0.10 0.10 79 1005.3
20260503220043 57 171 1.0 4.0 0.00 0.10 0.10 80 1005.6
20260503214540 57 173 1.0 4.0 0.00 0.10 0.10 82 1005.6
20260503213039 56 173 1.0 4.0 0.00 0.10 0.10 84 1005.5
20260503211539 57 175 0.0 2.0 0.00 0.10 0.10 88 1005.5
20260503210038 57 175 0.0 1.0 0.00 0.10 0.10 89 1005.5
20260503204537 56 175 0.0 1.0 0.00 0.10 0.10 90 1005.5
20260503203041 56 175 0.0 5.0 0.00 0.10 0.10 90 1005.5
20260503201536 56 192 0.0 3.0 0.00 0.10 0.10 91 1005.6
20260503200036 55 190 0.0 3.0 0.00 0.10 0.10 91 1005.8
20260503194536 55 189 0.0 3.0 0.00 0.10 0.10 92 1005.8
20260503193036 55 189 0.0 3.0 0.00 0.10 0.10 92 1005.9
20260503191533 54 190 1.0 5.0 0.00 0.10 0.10 92 1006.0
20260503190037 55 194 2.0 5.0 0.00 0.10 0.10 92 1006.0
20260503184541 55 203 2.0 5.0 0.02 0.10 0.10 93 1006.0
20260503183029 54 207 2.0 4.0 0.03 0.10 0.10 93 1006.1
20260503181527 54 200 1.0 4.0 0.04 0.10 0.10 93 1006.2
20260503180034 54 242 2.0 5.0 0.06 0.10 0.10 93 1006.4
20260503174530 54 221 2.0 5.0 0.05 0.08 0.08 93 1006.5
20260503173031 54 198 2.0 3.0 0.05 0.07 0.07 93 1006.4
20260503171518 54 201 2.0 6.0 0.05 0.06 0.06 93 1006.2
20260503081538 56 169 0.0 2.0 0.00 0.00 0.00 90 1004.8
20260503071524 54 168 0.0 1.0 0.00 0.00 0.00 87 1004.3
20260503054522 58 168 0.0 0.0 0.00 0.00 0.00 82 1004.6
20260503053016 59 168 0.0 2.0 0.00 0.00 0.00 80 1004.7
20260503051518 60 167 1.0 3.0 0.00 0.00 0.00 79 1004.5
20260503050016 61 167 1.0 3.0 0.00 0.00 0.00 79 1004.3
20260503044533 60 165 0.0 2.0 0.00 0.00 0.00 78 1003.9
20260503043030 62 165 0.0 1.0 0.00 0.00 0.00 75 1003.9
20260503041514 62 165 0.0 1.0 0.00 0.00 0.00 75 1003.8
20260503040013 63 165 0.0 1.0 0.00 0.00 0.00 74 1003.5
20260503034513 63 165 0.0 1.0 0.00 0.00 0.00 74 1003.1
20260503033014 63 165 0.0 3.0 0.00 0.00 0.00 73 1002.9
20260503031517 65 169 0.0 2.0 0.00 0.00 0.00 70 1002.8